Time,TemperatureF,DewpointF,PressureIn,WindDirection,WindDirectionDegrees,WindSpeedMPH,WindSpeedGustMPH,Humidity,HourlyPrecipIn,Conditions,Clouds,dailyrainin,SoftwareType,DateUTC
2013-03-06 00:01:00,40.5,36.9,30.07,NW,312,2.0,3.0,87,0.00,,,0.00,WeatherTracker,2013-03-06 06:01:00,
2013-03-06 00:06:00,40.4,36.8,30.07,NW,312,2.0,3.0,87,0.00,,,0.00,WeatherTracker,2013-03-06 06:06:00,
2013-03-06 00:11:00,40.3,37.0,30.07,NW,312,2.0,3.0,88,0.00,,,0.00,WeatherTracker,2013-03-06 06:11:00,
2013-03-06 00:16:00,40.2,36.9,30.07,NW,312,3.0,3.0,88,0.00,,,0.00,WeatherTracker,2013-03-06 06:16:00,
2013-03-06 00:21:00,40.0,36.7,30.07,NW,312,2.0,4.0,88,0.00,,,0.00,WeatherTracker,2013-03-06 06:21:00,
2013-03-06 00:26:00,39.9,36.6,30.07,NW,312,3.0,4.0,88,0.00,,,0.00,WeatherTracker,2013-03-06 06:26:00,
2013-03-06 00:31:00,39.9,36.9,30.07,WNW,300,2.0,6.0,89,0.00,,,0.00,WeatherTracker,2013-03-06 06:31:00,
2013-03-06 00:36:00,39.9,36.9,30.07,WNW,295,4.0,6.0,89,0.00,,,0.00,WeatherTracker,2013-03-06 06:36:00,
2013-03-06 00:41:00,39.9,36.9,30.07,WNW,300,4.0,6.0,89,0.00,,,0.00,WeatherTracker,2013-03-06 06:41:00,
2013-03-06 00:46:00,39.9,36.9,30.08,West,281,2.0,6.0,89,0.00,,,0.00,WeatherTracker,2013-03-06 06:46:00,
2013-03-06 00:51:00,39.8,36.8,30.08,West,281,2.0,6.0,89,0.00,,,0.00,WeatherTracker,2013-03-06 06:51:00,
2013-03-06 00:56:00,39.8,36.8,30.08,West,271,3.0,6.0,89,0.00,,,0.00,WeatherTracker,2013-03-06 06:56:00,
2013-03-06 01:02:00,39.9,36.9,30.08,West,270,4.0,6.0,89,0.00,,,0.00,WeatherTracker,2013-03-06 07:02:00,
2013-03-06 01:07:00,40.0,37.0,30.08,WNW,287,2.0,9.0,89,0.00,,,0.00,WeatherTracker,2013-03-06 07:07:00,
2013-03-06 01:12:00,40.1,36.8,30.08,West,274,4.0,9.0,88,0.00,,,0.00,WeatherTracker,2013-03-06 07:12:00,
2013-03-06 01:17:00,40.1,36.8,30.08,West,281,5.0,6.0,88,0.00,,,0.00,WeatherTracker,2013-03-06 07:17:00,
2013-03-06 01:22:00,40.2,36.9,30.08,WNW,284,3.0,7.0,88,0.00,,,0.00,WeatherTracker,2013-03-06 07:22:00,
2013-03-06 01:27:00,40.3,37.0,30.08,West,279,4.0,9.0,88,0.00,,,0.00,WeatherTracker,2013-03-06 07:27:00,
2013-03-06 01:32:00,40.3,36.7,30.08,West,273,5.0,9.0,87,0.00,,,0.00,WeatherTracker,2013-03-06 07:32:00,
2013-03-06 01:37:00,40.4,36.8,30.08,WNW,296,4.0,8.0,87,0.00,,,0.00,WeatherTracker,2013-03-06 07:37:00,
2013-03-06 01:42:00,40.6,37.0,30.08,West,275,4.0,10.0,87,0.00,,,0.00,WeatherTracker,2013-03-06 07:42:00,
2013-03-06 01:47:00,40.9,37.3,30.08,WNW,285,7.0,10.0,87,0.00,,,0.00,WeatherTracker,2013-03-06 07:47:00,
2013-03-06 01:52:00,40.9,37.0,30.08,West,272,4.0,10.0,86,0.00,,,0.00,WeatherTracker,2013-03-06 07:52:00,
2013-03-06 01:57:00,41.1,37.2,30.08,WNW,294,6.0,10.0,86,0.00,,,0.00,WeatherTracker,2013-03-06 07:57:00,
2013-03-06 02:02:00,41.1,37.2,30.08,WNW,300,4.0,10.0,86,0.00,,,0.00,WeatherTracker,2013-03-06 08:02:00,
2013-03-06 02:07:00,41.0,37.1,30.08,NW,313,7.0,9.0,86,0.00,,,0.00,WeatherTracker,2013-03-06 08:07:00,
2013-03-06 02:12:00,40.9,37.0,30.08,NW,310,9.0,9.0,86,0.00,,,0.00,WeatherTracker,2013-03-06 08:12:00,
2013-03-06 02:17:00,40.8,36.9,30.07,WNW,301,7.0,10.0,86,0.00,,,0.00,WeatherTracker,2013-03-06 08:17:00,
2013-03-06 02:22:00,40.8,36.6,30.08,WNW,296,8.0,10.0,85,0.00,,,0.00,WeatherTracker,2013-03-06 08:22:00,
2013-03-06 02:27:00,40.9,36.4,30.08,NW,326,6.0,12.0,84,0.00,,,0.00,WeatherTracker,2013-03-06 08:27:00,
2013-03-06 02:32:00,40.8,36.0,30.07,WNW,294,5.0,12.0,83,0.00,,,0.00,WeatherTracker,2013-03-06 08:32:00,
2013-03-06 02:38:00,40.7,35.6,30.07,NW,314,6.0,11.0,82,0.00,,,0.00,WeatherTracker,2013-03-06 08:38:00,
2013-03-06 02:43:00,40.8,35.4,30.07,WNW,298,6.0,11.0,81,0.00,,,0.00,WeatherTracker,2013-03-06 08:43:00,
2013-03-06 02:48:00,40.8,35.1,30.08,NW,318,7.0,10.0,80,0.00,,,0.00,WeatherTracker,2013-03-06 08:48:00,
2013-03-06 02:53:00,40.8,34.8,30.08,NW,321,5.0,11.0,79,0.00,,,0.00,WeatherTracker,2013-03-06 08:53:00,
2013-03-06 02:58:00,40.9,34.3,30.07,NNW,343,13.0,13.0,77,0.00,,,0.00,WeatherTracker,2013-03-06 08:58:00,
2013-03-06 03:03:00,41.0,33.7,30.07,NNW,335,7.0,13.0,75,0.00,,,0.00,WeatherTracker,2013-03-06 09:03:00,
2013-03-06 03:08:00,41.1,33.1,30.08,WNW,300,7.0,14.0,73,0.00,,,0.00,WeatherTracker,2013-03-06 09:08:00,
2013-03-06 03:13:00,41.1,32.8,30.08,NNW,330,11.0,13.0,72,0.00,,,0.00,WeatherTracker,2013-03-06 09:13:00,
2013-03-06 03:18:00,41.1,32.1,30.08,North,355,8.0,17.0,70,0.00,,,0.00,WeatherTracker,2013-03-06 09:18:00,
2013-03-06 03:23:00,41.0,32.0,30.08,NW,318,11.0,17.0,70,0.00,,,0.00,WeatherTracker,2013-03-06 09:23:00,
2013-03-06 03:28:00,40.9,31.5,30.08,NW,321,8.0,16.0,69,0.00,,,0.00,WeatherTracker,2013-03-06 09:28:00,
2013-03-06 03:33:00,40.9,30.8,30.08,NW,321,5.0,16.0,67,0.00,,,0.00,WeatherTracker,2013-03-06 09:33:00,
2013-03-06 03:38:00,40.8,30.3,30.09,NNE,19,14.0,15.0,66,0.00,,,0.00,WeatherTracker,2013-03-06 09:38:00,
2013-03-06 03:43:00,40.9,30.1,30.09,NW,320,7.0,18.0,65,0.00,,,0.00,WeatherTracker,2013-03-06 09:43:00,
2013-03-06 03:48:00,40.9,29.7,30.09,NNW,336,12.0,18.0,64,0.00,,,0.00,WeatherTracker,2013-03-06 09:48:00,
2013-03-06 03:53:00,40.9,29.7,30.09,NW,315,5.0,16.0,64,0.00,,,0.00,WeatherTracker,2013-03-06 09:53:00,
2013-03-06 03:58:00,40.7,29.5,30.09,NNW,331,12.0,15.0,64,0.00,,,0.00,WeatherTracker,2013-03-06 09:58:00,
2013-03-06 04:03:00,40.7,29.5,30.09,NNW,343,10.0,15.0,64,0.00,,,0.00,WeatherTracker,2013-03-06 10:03:00,
2013-03-06 04:08:00,40.6,29.0,30.09,North,5,8.0,15.0,63,0.00,,,0.00,WeatherTracker,2013-03-06 10:08:00,
2013-03-06 04:13:00,40.6,29.0,30.10,NW,320,9.0,18.0,63,0.00,,,0.00,WeatherTracker,2013-03-06 10:13:00,
2013-03-06 04:18:00,40.6,29.0,30.10,North,5,15.0,18.0,63,0.00,,,0.00,WeatherTracker,2013-03-06 10:18:00,
2013-03-06 04:23:00,40.6,28.6,30.10,NNW,341,11.0,21.0,62,0.00,,,0.00,WeatherTracker,2013-03-06 10:23:00,
2013-03-06 04:28:00,40.5,28.5,30.11,North,360,8.0,21.0,62,0.00,,,0.00,WeatherTracker,2013-03-06 10:28:00,
2013-03-06 04:33:00,40.4,28.4,30.11,North,350,13.0,21.0,62,0.00,,,0.00,WeatherTracker,2013-03-06 10:33:00,
2013-03-06 04:38:00,40.2,28.6,30.11,North,355,13.0,19.0,63,0.00,,,0.00,WeatherTracker,2013-03-06 10:38:00,
2013-03-06 04:43:00,40.1,28.5,30.11,NW,319,7.0,19.0,63,0.00,,,0.00,WeatherTracker,2013-03-06 10:43:00,
2013-03-06 04:48:00,40.0,28.8,30.12,NW,312,6.0,15.0,64,0.00,,,0.00,WeatherTracker,2013-03-06 10:48:00,
2013-03-06 04:53:00,39.9,28.7,30.12,NNW,333,7.0,17.0,64,0.00,,,0.00,WeatherTracker,2013-03-06 10:53:00,
2013-03-06 04:58:00,39.8,28.2,30.12,NW,318,13.0,17.0,63,0.00,,,0.00,WeatherTracker,2013-03-06 10:58:00,
2013-03-06 05:04:00,39.8,28.2,30.13,NNW,338,7.0,18.0,63,0.00,,,0.00,WeatherTracker,2013-03-06 11:04:00,
2013-03-06 05:09:00,39.6,28.1,30.13,NW,319,12.0,18.0,63,0.00,,,0.00,WeatherTracker,2013-03-06 11:09:00,
2013-03-06 05:14:00,39.6,28.4,30.13,NW,325,8.0,21.0,64,0.00,,,0.00,WeatherTracker,2013-03-06 11:14:00,
2013-03-06 05:19:00,39.5,28.3,30.14,NNW,342,11.0,21.0,64,0.00,,,0.00,WeatherTracker,2013-03-06 11:19:00,
2013-03-06 05:24:00,39.3,27.8,30.14,NW,325,6.0,15.0,63,0.00,,,0.00,WeatherTracker,2013-03-06 11:24:00,
2013-03-06 05:29:00,39.2,28.1,30.14,NNW,343,11.0,16.0,64,0.00,,,0.00,WeatherTracker,2013-03-06 11:29:00,
2013-03-06 05:34:00,39.1,27.6,30.14,NNW,335,7.0,16.0,63,0.00,,,0.00,WeatherTracker,2013-03-06 11:34:00,
2013-03-06 05:39:00,39.0,27.1,30.14,NNW,331,10.0,17.0,62,0.00,,,0.00,WeatherTracker,2013-03-06 11:39:00,
2013-03-06 05:44:00,39.0,27.5,30.14,NW,322,11.0,18.0,63,0.00,,,0.00,WeatherTracker,2013-03-06 11:44:00,
2013-03-06 05:49:00,38.9,27.0,30.14,NNW,342,8.0,18.0,62,0.00,,,0.00,WeatherTracker,2013-03-06 11:49:00,
2013-03-06 05:54:00,38.8,26.9,30.15,North,350,10.0,15.0,62,0.00,,,0.00,WeatherTracker,2013-03-06 11:54:00,
2013-03-06 05:59:00,38.7,27.6,30.15,NNW,342,5.0,16.0,64,0.00,,,0.00,WeatherTracker,2013-03-06 11:59:00,
2013-03-06 06:04:00,38.6,27.1,30.15,NNW,334,11.0,16.0,63,0.00,,,0.00,WeatherTracker,2013-03-06 12:04:00,
2013-03-06 06:09:00,38.4,27.3,30.16,NNW,338,5.0,15.0,64,0.00,,,0.00,WeatherTracker,2013-03-06 12:09:00,
2013-03-06 06:14:00,38.3,27.2,30.16,North,355,7.0,14.0,64,0.00,,,0.00,WeatherTracker,2013-03-06 12:14:00,
2013-03-06 06:19:00,38.3,27.2,30.16,NNW,333,4.0,15.0,64,0.00,,,0.00,WeatherTracker,2013-03-06 12:19:00,
2013-03-06 06:24:00,38.2,27.5,30.16,WNW,302,4.0,15.0,65,0.00,,,0.00,WeatherTracker,2013-03-06 12:24:00,
2013-03-06 06:29:00,38.2,27.5,30.16,NNW,331,4.0,13.0,65,0.00,,,0.00,WeatherTracker,2013-03-06 12:29:00,
2013-03-06 06:35:00,38.2,27.5,30.16,WNW,303,8.0,13.0,65,0.00,,,0.00,WeatherTracker,2013-03-06 12:35:00,
2013-03-06 06:40:00,38.3,27.6,30.16,NW,324,7.0,12.0,65,0.00,,,0.00,WeatherTracker,2013-03-06 12:40:00,
2013-03-06 06:45:00,38.5,27.8,30.16,NW,321,6.0,12.0,65,0.00,,,0.00,WeatherTracker,2013-03-06 12:45:00,
2013-03-06 06:50:00,38.6,27.9,30.17,NNW,334,13.0,13.0,65,0.00,,,0.00,WeatherTracker,2013-03-06 12:50:00,
2013-03-06 06:55:00,38.8,28.1,30.17,NNW,340,6.0,13.0,65,0.00,,,0.00,WeatherTracker,2013-03-06 12:55:00,
2013-03-06 07:00:00,39.0,27.9,30.17,NNW,347,7.0,14.0,64,0.00,,,0.00,WeatherTracker,2013-03-06 13:00:00,
2013-03-06 07:05:00,39.1,28.0,30.17,NNW,342,8.0,14.0,64,0.00,,,0.00,WeatherTracker,2013-03-06 13:05:00,
2013-03-06 07:10:00,39.3,28.5,30.18,NW,311,8.0,13.0,65,0.00,,,0.00,WeatherTracker,2013-03-06 13:10:00,
2013-03-06 07:15:00,39.6,28.8,30.18,NW,323,11.0,12.0,65,0.00,,,0.00,WeatherTracker,2013-03-06 13:15:00,
2013-03-06 07:20:00,39.7,28.9,30.18,NNW,346,9.0,13.0,65,0.00,,,0.00,WeatherTracker,2013-03-06 13:20:00,
2013-03-06 07:25:00,40.0,29.2,30.18,NNW,339,9.0,13.0,65,0.00,,,0.00,WeatherTracker,2013-03-06 13:25:00,
2013-03-06 07:30:00,40.2,29.0,30.18,NNW,342,8.0,13.0,64,0.00,,,0.00,WeatherTracker,2013-03-06 13:30:00,
2013-03-06 07:35:00,40.3,28.7,30.18,NW,325,7.0,16.0,63,0.00,,,0.00,WeatherTracker,2013-03-06 13:35:00,
2013-03-06 07:40:00,40.5,28.5,30.18,NNW,329,10.0,16.0,62,0.00,,,0.00,WeatherTracker,2013-03-06 13:40:00,
2013-03-06 07:45:00,40.4,28.0,30.19,NNW,348,11.0,21.0,61,0.00,,,0.00,WeatherTracker,2013-03-06 13:45:00,
2013-03-06 07:50:00,40.5,28.1,30.19,NNW,342,12.0,21.0,61,0.00,,,0.00,WeatherTracker,2013-03-06 13:50:00,
2013-03-06 07:55:00,40.5,28.1,30.19,NNW,338,15.0,17.0,61,0.00,,,0.00,WeatherTracker,2013-03-06 13:55:00,
2013-03-06 08:00:00,40.7,28.3,30.19,NNW,348,10.0,17.0,61,0.00,,,0.00,WeatherTracker,2013-03-06 14:00:00,
2013-03-06 08:06:00,40.9,28.1,30.18,NNW,336,10.0,23.0,60,0.00,,,0.00,WeatherTracker,2013-03-06 14:06:00,
2013-03-06 08:11:00,41.0,28.2,30.18,NNW,331,13.0,23.0,60,0.00,,,0.00,WeatherTracker,2013-03-06 14:11:00,
2013-03-06 08:16:00,41.1,28.3,30.18,NNW,344,8.0,23.0,60,0.00,,,0.00,WeatherTracker,2013-03-06 14:16:00,
2013-03-06 08:21:00,41.3,28.5,30.18,NNW,331,8.0,18.0,60,0.00,,,0.00,WeatherTracker,2013-03-06 14:21:00,
2013-03-06 08:26:00,41.7,28.9,30.18,NNW,340,13.0,18.0,60,0.00,,,0.00,WeatherTracker,2013-03-06 14:26:00,
2013-03-06 08:31:00,42.0,29.5,30.19,NNW,346,11.0,17.0,61,0.00,,,0.00,WeatherTracker,2013-03-06 14:31:00,
2013-03-06 08:36:00,42.2,28.9,30.19,NNW,339,9.0,23.0,59,0.00,,,0.00,WeatherTracker,2013-03-06 14:36:00,
2013-03-06 08:41:00,42.4,29.1,30.19,North,350,12.0,23.0,59,0.00,,,0.00,WeatherTracker,2013-03-06 14:41:00,
2013-03-06 08:46:00,42.5,28.4,30.18,WNW,303,11.0,20.0,57,0.00,,,0.00,WeatherTracker,2013-03-06 14:46:00,
2013-03-06 08:51:00,42.6,28.4,30.18,NW,321,10.0,21.0,57,0.00,,,0.00,WeatherTracker,2013-03-06 14:51:00,
2013-03-06 08:56:00,42.7,28.5,30.19,NNW,339,13.0,23.0,57,0.00,,,0.00,WeatherTracker,2013-03-06 14:56:00,
2013-03-06 09:01:00,42.7,29.0,30.19,NNW,348,14.0,23.0,58,0.00,,,0.00,WeatherTracker,2013-03-06 15:01:00,
2013-03-06 09:06:00,42.9,28.7,30.19,NNW,348,11.0,22.0,57,0.00,,,0.00,WeatherTracker,2013-03-06 15:06:00,
2013-03-06 09:11:00,43.1,28.9,30.19,NNW,341,8.0,21.0,57,0.00,,,0.00,WeatherTracker,2013-03-06 15:11:00,
2013-03-06 09:16:00,43.6,29.4,30.19,NW,311,9.0,21.0,57,0.00,,,0.00,WeatherTracker,2013-03-06 15:16:00,
2013-03-06 09:21:00,43.9,29.7,30.19,NNW,330,12.0,18.0,57,0.00,,,0.00,WeatherTracker,2013-03-06 15:21:00,
2013-03-06 09:26:00,44.3,30.0,30.19,North,5,13.0,17.0,57,0.00,,,0.00,WeatherTracker,2013-03-06 15:26:00,
2013-03-06 09:31:00,44.4,30.6,30.19,North,350,7.0,19.0,58,0.00,,,0.00,WeatherTracker,2013-03-06 15:31:00,
2013-03-06 09:36:00,44.6,29.4,30.19,North,351,9.0,19.0,55,0.00,,,0.00,WeatherTracker,2013-03-06 15:36:00,
2013-03-06 09:41:00,44.5,29.3,30.19,North,355,11.0,18.0,55,0.00,,,0.00,WeatherTracker,2013-03-06 15:41:00,
2013-03-06 09:46:00,44.5,28.9,30.19,NW,321,10.0,23.0,54,0.00,,,0.00,WeatherTracker,2013-03-06 15:46:00,
2013-03-06 09:51:00,44.6,29.9,30.19,North,5,10.0,23.0,56,0.00,,,0.00,WeatherTracker,2013-03-06 15:51:00,
2013-03-06 09:57:00,45.0,29.8,30.19,North,360,10.0,17.0,55,0.00,,,0.00,WeatherTracker,2013-03-06 15:57:00,
2013-03-06 10:02:00,45.2,30.0,30.19,North,355,12.0,22.0,55,0.00,,,0.00,WeatherTracker,2013-03-06 16:02:00,
2013-03-06 10:07:00,45.6,30.4,30.19,NW,315,9.0,22.0,55,0.00,,,0.00,WeatherTracker,2013-03-06 16:07:00,
2013-03-06 10:12:00,45.9,30.2,30.19,NNW,328,9.0,18.0,54,0.00,,,0.00,WeatherTracker,2013-03-06 16:12:00,
2013-03-06 10:17:00,46.3,30.6,30.20,NNW,340,10.0,18.0,54,0.00,,,0.00,WeatherTracker,2013-03-06 16:17:00,
2013-03-06 10:22:00,46.2,30.0,30.20,NNW,346,13.0,19.0,53,0.00,,,0.00,WeatherTracker,2013-03-06 16:22:00,
2013-03-06 10:27:00,46.4,31.1,30.19,North,355,9.0,20.0,55,0.00,,,0.00,WeatherTracker,2013-03-06 16:27:00,
2013-03-06 10:32:00,46.8,30.1,30.19,North,351,9.0,20.0,52,0.00,,,0.00,WeatherTracker,2013-03-06 16:32:00,
2013-03-06 10:37:00,46.7,30.5,30.19,NNW,341,14.0,20.0,53,0.00,,,0.00,WeatherTracker,2013-03-06 16:37:00,
2013-03-06 10:42:00,46.7,29.5,30.19,WNW,285,14.0,20.0,51,0.00,,,0.00,WeatherTracker,2013-03-06 16:42:00,
2013-03-06 10:47:00,46.6,30.9,30.19,North,355,11.0,19.0,54,0.00,,,0.00,WeatherTracker,2013-03-06 16:47:00,
2013-03-06 10:52:00,47.0,30.8,30.19,NW,324,6.0,19.0,53,0.00,,,0.00,WeatherTracker,2013-03-06 16:52:00,
2013-03-06 10:57:00,47.3,30.1,30.19,North,5,9.0,18.0,51,0.00,,,0.00,WeatherTracker,2013-03-06 16:57:00,
2013-03-06 11:02:00,47.5,31.2,30.19,North,5,10.0,19.0,53,0.00,,,0.00,WeatherTracker,2013-03-06 17:02:00,
2013-03-06 11:07:00,47.7,30.5,30.19,NNW,344,13.0,19.0,51,0.00,,,0.00,WeatherTracker,2013-03-06 17:07:00,
2013-03-06 11:12:00,47.6,30.4,30.18,NNE,22,8.0,19.0,51,0.00,,,0.00,WeatherTracker,2013-03-06 17:12:00,
2013-03-06 11:17:00,47.8,31.5,30.18,WNW,298,7.0,19.0,53,0.00,,,0.00,WeatherTracker,2013-03-06 17:17:00,
2013-03-06 11:22:00,48.3,31.5,30.18,North,5,8.0,17.0,52,0.00,,,0.00,WeatherTracker,2013-03-06 17:22:00,
2013-03-06 11:27:00,49.1,31.8,30.18,NNW,333,10.0,17.0,51,0.00,,,0.00,WeatherTracker,2013-03-06 17:27:00,
2013-03-06 11:32:00,48.7,30.9,30.18,NNW,340,8.0,19.0,50,0.00,,,0.00,WeatherTracker,2013-03-06 17:32:00,
2013-03-06 11:38:00,48.8,32.4,30.17,North,355,12.0,19.0,53,0.00,,,0.00,WeatherTracker,2013-03-06 17:38:00,
2013-03-06 11:43:00,48.8,30.0,30.18,North,351,15.0,20.0,48,0.00,,,0.00,WeatherTracker,2013-03-06 17:43:00,
2013-03-06 11:48:00,49.2,30.9,30.18,NW,323,10.0,21.0,49,0.00,,,0.00,WeatherTracker,2013-03-06 17:48:00,
2013-03-06 11:53:00,49.4,31.0,30.18,NW,323,11.0,21.0,49,0.00,,,0.00,WeatherTracker,2013-03-06 17:53:00,
2013-03-06 11:58:00,49.5,31.1,30.18,NNE,27,9.0,19.0,49,0.00,,,0.00,WeatherTracker,2013-03-06 17:58:00,
2013-03-06 12:03:00,49.6,31.2,30.17,NW,310,13.0,18.0,49,0.00,,,0.00,WeatherTracker,2013-03-06 18:03:00,
2013-03-06 12:08:00,50.0,31.6,30.17,North,355,11.0,18.0,49,0.00,,,0.00,WeatherTracker,2013-03-06 18:08:00,
2013-03-06 12:13:00,50.1,30.1,30.17,NW,309,9.0,21.0,46,0.00,,,0.00,WeatherTracker,2013-03-06 18:13:00,
2013-03-06 12:18:00,50.3,30.8,30.17,NNW,338,9.0,26.0,47,0.00,,,0.00,WeatherTracker,2013-03-06 18:18:00,
2013-03-06 12:23:00,50.4,31.5,30.16,WNW,301,12.0,26.0,48,0.00,,,0.00,WeatherTracker,2013-03-06 18:23:00,
2013-03-06 12:28:00,50.5,31.0,30.16,NNE,15,11.0,26.0,47,0.00,,,0.00,WeatherTracker,2013-03-06 18:28:00,
2013-03-06 12:33:00,50.2,31.8,30.16,NNE,28,10.0,20.0,49,0.00,,,0.00,WeatherTracker,2013-03-06 18:33:00,
2013-03-06 12:38:00,50.5,30.5,30.16,North,355,10.0,22.0,46,0.00,,,0.00,WeatherTracker,2013-03-06 18:38:00,
2013-03-06 12:43:00,50.7,32.2,30.16,NW,319,4.0,22.0,49,0.00,,,0.00,WeatherTracker,2013-03-06 18:43:00,
2013-03-06 12:48:00,50.9,30.3,30.15,NNW,346,6.0,20.0,45,0.00,,,0.00,WeatherTracker,2013-03-06 18:48:00,
2013-03-06 12:53:00,51.0,32.0,30.15,North,355,9.0,20.0,48,0.00,,,0.00,WeatherTracker,2013-03-06 18:53:00,
2013-03-06 12:58:00,51.3,31.8,30.15,NW,325,13.0,18.0,47,0.00,,,0.00,WeatherTracker,2013-03-06 18:58:00,
2013-03-06 13:03:00,51.1,31.6,30.15,NNW,344,11.0,20.0,47,0.00,,,0.00,WeatherTracker,2013-03-06 19:03:00,
2013-03-06 13:08:00,51.2,31.7,30.15,North,355,11.0,20.0,47,0.00,,,0.00,WeatherTracker,2013-03-06 19:08:00,
2013-03-06 13:14:00,51.3,31.2,30.15,North,355,13.0,18.0,46,0.00,,,0.00,WeatherTracker,2013-03-06 19:14:00,
2013-03-06 13:19:00,51.2,30.6,30.15,NNW,330,9.0,19.0,45,0.00,,,0.00,WeatherTracker,2013-03-06 19:19:00,
2013-03-06 13:24:00,51.1,31.6,30.15,NNE,18,14.0,20.0,47,0.00,,,0.00,WeatherTracker,2013-03-06 19:24:00,
2013-03-06 13:29:00,51.2,31.7,30.14,North,9,9.0,20.0,47,0.00,,,0.00,WeatherTracker,2013-03-06 19:29:00,
2013-03-06 13:34:00,51.5,31.4,30.14,NNW,348,13.0,20.0,46,0.00,,,0.00,WeatherTracker,2013-03-06 19:34:00,
2013-03-06 13:39:00,51.8,31.1,30.15,North,355,8.0,22.0,45,0.00,,,0.00,WeatherTracker,2013-03-06 19:39:00,
2013-03-06 13:44:00,51.7,31.1,30.15,NW,323,9.0,22.0,45,0.00,,,0.00,WeatherTracker,2013-03-06 19:44:00,
2013-03-06 13:49:00,51.6,31.5,30.15,NNW,343,7.0,19.0,46,0.00,,,0.00,WeatherTracker,2013-03-06 19:49:00,
2013-03-06 13:54:00,51.7,31.1,30.15,NNW,347,14.0,19.0,45,0.00,,,0.00,WeatherTracker,2013-03-06 19:54:00,
2013-03-06 13:59:00,51.7,31.6,30.15,North,360,11.0,18.0,46,0.00,,,0.00,WeatherTracker,2013-03-06 19:59:00,
2013-03-06 14:04:00,51.9,32.3,30.15,NW,319,9.0,17.0,47,0.00,,,0.00,WeatherTracker,2013-03-06 20:04:00,
2013-03-06 14:09:00,52.1,32.5,30.15,WNW,298,7.0,16.0,47,0.00,,,0.00,WeatherTracker,2013-03-06 20:09:00,
2013-03-06 14:14:00,52.3,32.1,30.15,NNW,342,8.0,16.0,46,0.00,,,0.00,WeatherTracker,2013-03-06 20:14:00,
2013-03-06 14:19:00,52.5,32.3,30.15,NNW,331,4.0,17.0,46,0.00,,,0.00,WeatherTracker,2013-03-06 20:19:00,
2013-03-06 14:24:00,53.0,33.8,30.15,NNE,19,11.0,17.0,48,0.00,,,0.00,WeatherTracker,2013-03-06 20:24:00,
2013-03-06 14:29:00,52.7,32.5,30.15,North,355,14.0,18.0,46,0.00,,,0.00,WeatherTracker,2013-03-06 20:29:00,
2013-03-06 14:34:00,52.8,33.7,30.15,NNE,18,9.0,18.0,48,0.00,,,0.00,WeatherTracker,2013-03-06 20:34:00,
2013-03-06 14:39:00,52.8,32.1,30.16,North,360,13.0,20.0,45,0.00,,,0.00,WeatherTracker,2013-03-06 20:39:00,
2013-03-06 14:44:00,52.4,32.2,30.15,NNE,17,10.0,20.0,46,0.00,,,0.00,WeatherTracker,2013-03-06 20:44:00,
2013-03-06 14:50:00,52.5,32.9,30.16,NNE,13,10.0,18.0,47,0.00,,,0.00,WeatherTracker,2013-03-06 20:50:00,
2013-03-06 14:55:00,52.2,32.1,30.16,NW,326,6.0,19.0,46,0.00,,,0.00,WeatherTracker,2013-03-06 20:55:00,
2013-03-06 15:00:00,52.3,32.7,30.15,North,355,14.0,19.0,47,0.00,,,0.00,WeatherTracker,2013-03-06 21:00:00,
2013-03-06 15:05:00,52.3,32.1,30.15,North,355,15.0,19.0,46,0.00,,,0.00,WeatherTracker,2013-03-06 21:05:00,
2013-03-06 15:10:00,52.1,32.0,30.15,North,355,11.0,20.0,46,0.00,,,0.00,WeatherTracker,2013-03-06 21:10:00,
2013-03-06 15:15:00,52.3,33.7,30.15,NNW,348,8.0,20.0,49,0.00,,,0.00,WeatherTracker,2013-03-06 21:15:00,
2013-03-06 15:20:00,52.6,32.9,30.15,NNE,21,11.0,19.0,47,0.00,,,0.00,WeatherTracker,2013-03-06 21:20:00,
2013-03-06 15:25:00,52.3,32.1,30.15,North,11,11.0,19.0,46,0.00,,,0.00,WeatherTracker,2013-03-06 21:25:00,
2013-03-06 15:30:00,52.1,33.0,30.15,NNE,18,9.0,20.0,48,0.00,,,0.00,WeatherTracker,2013-03-06 21:30:00,
2013-03-06 15:35:00,51.9,32.8,30.15,North,360,10.0,20.0,48,0.00,,,0.00,WeatherTracker,2013-03-06 21:35:00,
2013-03-06 15:40:00,52.0,32.4,30.15,NNW,338,7.0,20.0,47,0.00,,,0.00,WeatherTracker,2013-03-06 21:40:00,
2013-03-06 15:49:00,52.2,32.6,30.15,North,355,8.0,19.0,47,0.00,,,0.00,WeatherTracker,2013-03-06 21:49:00,
2013-03-06 15:54:00,52.1,32.5,30.15,NNW,336,9.0,18.0,47,0.00,,,0.00,WeatherTracker,2013-03-06 21:54:00,
2013-03-06 15:59:00,51.9,32.3,30.15,NNW,331,13.0,18.0,47,0.00,,,0.00,WeatherTracker,2013-03-06 21:59:00,
2013-03-06 16:04:00,51.9,32.8,30.15,NNW,344,16.0,18.0,48,0.00,,,0.00,WeatherTracker,2013-03-06 22:04:00,
2013-03-06 16:09:00,51.6,32.0,30.15,NW,325,8.0,17.0,47,0.00,,,0.00,WeatherTracker,2013-03-06 22:09:00,
2013-03-06 16:14:00,51.5,31.9,30.15,North,11,12.0,19.0,47,0.00,,,0.00,WeatherTracker,2013-03-06 22:14:00,
2013-03-06 16:19:00,51.5,33.0,30.15,North,5,10.0,19.0,49,0.00,,,0.00,WeatherTracker,2013-03-06 22:19:00,
2013-03-06 16:24:00,51.5,32.5,30.15,NE,36,11.0,19.0,48,0.00,,,0.00,WeatherTracker,2013-03-06 22:24:00,
2013-03-06 16:29:00,51.5,33.0,30.15,North,5,12.0,19.0,49,0.00,,,0.00,WeatherTracker,2013-03-06 22:29:00,
2013-03-06 16:34:00,51.3,32.8,30.15,NNE,15,12.0,16.0,49,0.00,,,0.00,WeatherTracker,2013-03-06 22:34:00,
2013-03-06 16:39:00,51.1,33.1,30.15,North,5,13.0,16.0,50,0.00,,,0.00,WeatherTracker,2013-03-06 22:39:00,
2013-03-06 16:44:00,51.0,33.0,30.15,North,350,13.0,16.0,50,0.00,,,0.00,WeatherTracker,2013-03-06 22:44:00,
2013-03-06 16:49:00,51.0,32.5,30.15,NW,321,8.0,16.0,49,0.00,,,0.00,WeatherTracker,2013-03-06 22:49:00,
2013-03-06 16:54:00,50.8,32.3,30.14,North,355,10.0,17.0,49,0.00,,,0.00,WeatherTracker,2013-03-06 22:54:00,
2013-03-06 16:59:00,50.7,33.2,30.15,North,355,11.0,17.0,51,0.00,,,0.00,WeatherTracker,2013-03-06 22:59:00,
2013-03-06 17:04:00,50.4,33.0,30.15,North,5,11.0,14.0,51,0.00,,,0.00,WeatherTracker,2013-03-06 23:04:00,
2013-03-06 17:10:00,50.1,32.2,30.15,NNW,338,8.0,16.0,50,0.00,,,0.00,WeatherTracker,2013-03-06 23:10:00,
2013-03-06 17:15:00,50.0,32.6,30.15,NNW,338,11.0,16.0,51,0.00,,,0.00,WeatherTracker,2013-03-06 23:15:00,
2013-03-06 17:20:00,49.7,32.8,30.15,North,9,12.0,15.0,52,0.00,,,0.00,WeatherTracker,2013-03-06 23:20:00,
2013-03-06 17:25:00,49.3,32.9,30.16,North,5,4.0,15.0,53,0.00,,,0.00,WeatherTracker,2013-03-06 23:25:00,
2013-03-06 17:30:00,48.9,33.0,30.16,North,5,4.0,15.0,54,0.00,,,0.00,WeatherTracker,2013-03-06 23:30:00,
2013-03-06 17:35:00,48.6,32.7,30.16,NNW,348,7.0,10.0,54,0.00,,,0.00,WeatherTracker,2013-03-06 23:35:00,
2013-03-06 17:40:00,48.3,32.9,30.17,North,355,6.0,9.0,55,0.00,,,0.00,WeatherTracker,2013-03-06 23:40:00,
2013-03-06 17:45:00,48.0,32.6,30.17,North,351,6.0,9.0,55,0.00,,,0.00,WeatherTracker,2013-03-06 23:45:00,
2013-03-06 17:50:00,47.6,33.1,30.18,North,9,4.0,9.0,57,0.00,,,0.00,WeatherTracker,2013-03-06 23:50:00,
2013-03-06 17:55:00,47.2,32.8,30.18,North,351,6.0,9.0,57,0.00,,,0.00,WeatherTracker,2013-03-06 23:55:00,
2013-03-06 18:00:00,47.0,32.6,30.18,NNW,344,8.0,9.0,57,0.00,,,0.00,WeatherTracker,2013-03-07 00:00:00,
2013-03-06 18:05:00,46.8,32.8,30.18,North,5,6.0,9.0,58,0.00,,,0.00,WeatherTracker,2013-03-07 00:05:00,
2013-03-06 18:10:00,46.5,33.0,30.18,North,351,5.0,9.0,59,0.00,,,0.00,WeatherTracker,2013-03-07 00:10:00,
2013-03-06 18:15:00,46.1,33.0,30.19,North,351,6.0,8.0,60,0.00,,,0.00,WeatherTracker,2013-03-07 00:15:00,
2013-03-06 18:20:00,45.8,32.7,30.19,North,355,4.0,8.0,60,0.00,,,0.00,WeatherTracker,2013-03-07 00:20:00,
2013-03-06 18:25:00,45.4,33.2,30.19,North,355,3.0,8.0,62,0.00,,,0.00,WeatherTracker,2013-03-07 00:25:00,
2013-03-06 18:30:00,44.9,32.7,30.19,North,360,6.0,6.0,62,0.00,,,0.00,WeatherTracker,2013-03-07 00:30:00,
2013-03-06 18:36:00,44.7,32.9,30.19,North,355,5.0,8.0,63,0.00,,,0.00,WeatherTracker,2013-03-07 00:36:00,
2013-03-06 18:41:00,44.5,32.7,30.20,North,355,5.0,8.0,63,0.00,,,0.00,WeatherTracker,2013-03-07 00:41:00,
2013-03-06 18:46:00,44.2,32.4,30.20,North,355,5.0,7.0,63,0.00,,,0.00,WeatherTracker,2013-03-07 00:46:00,
2013-03-06 18:51:00,44.2,32.8,30.20,NNW,343,1.0,6.0,64,0.00,,,0.00,WeatherTracker,2013-03-07 00:51:00,
2013-03-06 18:56:00,44.0,33.4,30.20,NNW,343,2.0,6.0,66,0.00,,,0.00,WeatherTracker,2013-03-07 00:56:00,
2013-03-06 19:01:00,43.5,32.5,30.20,NNW,343,1.0,4.0,65,0.00,,,0.00,WeatherTracker,2013-03-07 01:01:00,
2013-03-06 19:06:00,43.2,32.6,30.21,NNW,343,2.0,4.0,66,0.00,,,0.00,WeatherTracker,2013-03-07 01:06:00,
2013-03-06 19:11:00,43.0,32.8,30.21,NNW,343,2.0,4.0,67,0.00,,,0.00,WeatherTracker,2013-03-07 01:11:00,
2013-03-06 19:16:00,42.8,33.0,30.21,NNW,343,0.0,3.0,68,0.00,,,0.00,WeatherTracker,2013-03-07 01:16:00,
2013-03-06 19:21:00,42.4,32.6,30.21,NNW,343,1.0,3.0,68,0.00,,,0.00,WeatherTracker,2013-03-07 01:21:00,
2013-03-06 19:26:00,42.1,32.3,30.21,NNW,343,3.0,4.0,68,0.00,,,0.00,WeatherTracker,2013-03-07 01:26:00,
2013-03-06 19:31:00,42.0,32.6,30.22,NNW,343,3.0,4.0,69,0.00,,,0.00,WeatherTracker,2013-03-07 01:31:00,
2013-03-06 19:36:00,42.0,32.6,30.22,NNW,343,2.0,6.0,69,0.00,,,0.00,WeatherTracker,2013-03-07 01:36:00,
2013-03-06 19:41:00,41.9,32.5,30.22,NNW,332,5.0,6.0,69,0.00,,,0.00,WeatherTracker,2013-03-07 01:41:00,
2013-03-06 19:46:00,42.0,32.6,30.22,NNW,336,4.0,8.0,69,0.00,,,0.00,WeatherTracker,2013-03-07 01:46:00,
2013-03-06 19:51:00,42.2,32.8,30.22,NNW,329,4.0,8.0,69,0.00,,,0.00,WeatherTracker,2013-03-07 01:51:00,
2013-03-06 19:57:00,42.0,32.6,30.22,North,355,6.0,6.0,69,0.00,,,0.00,WeatherTracker,2013-03-07 01:57:00,
2013-03-06 20:02:00,41.8,32.7,30.22,North,5,3.0,6.0,70,0.00,,,0.00,WeatherTracker,2013-03-07 02:02:00,
2013-03-06 20:07:00,41.6,32.6,30.22,NNW,332,4.0,6.0,70,0.00,,,0.00,WeatherTracker,2013-03-07 02:07:00,
2013-03-06 20:12:00,41.6,32.6,30.22,NNW,346,4.0,7.0,70,0.00,,,0.00,WeatherTracker,2013-03-07 02:12:00,
2013-03-06 20:17:00,41.6,32.6,30.22,NNW,346,4.0,7.0,70,0.00,,,0.00,WeatherTracker,2013-03-07 02:17:00,
2013-03-06 20:22:00,41.3,32.6,30.22,NNW,346,3.0,6.0,71,0.00,,,0.00,WeatherTracker,2013-03-07 02:22:00,
2013-03-06 20:27:00,40.9,32.6,30.22,NNW,346,1.0,6.0,72,0.00,,,0.00,WeatherTracker,2013-03-07 02:27:00,
2013-03-06 20:32:00,40.7,32.4,30.22,NNW,346,1.0,3.0,72,0.00,,,0.00,WeatherTracker,2013-03-07 02:32:00,
2013-03-06 20:37:00,40.4,32.1,30.22,NNW,346,2.0,3.0,72,0.00,,,0.00,WeatherTracker,2013-03-07 02:37:00,
2013-03-06 20:42:00,40.1,32.2,30.23,NNW,346,1.0,3.0,73,0.00,,,0.00,WeatherTracker,2013-03-07 02:42:00,
2013-03-06 20:47:00,39.9,32.3,30.23,NNW,346,0.0,3.0,74,0.00,,,0.00,WeatherTracker,2013-03-07 02:47:00,
2013-03-06 20:52:00,39.8,31.9,30.23,NNW,346,0.0,2.0,73,0.00,,,0.00,WeatherTracker,2013-03-07 02:52:00,
2013-03-06 20:58:00,39.6,31.7,30.23,NNW,346,0.0,0.0,73,0.00,,,0.00,WeatherTracker,2013-03-07 02:58:00,
2013-03-06 21:03:00,39.5,31.6,30.23,NNW,346,0.0,0.0,73,0.00,,,0.00,WeatherTracker,2013-03-07 03:03:00,
2013-03-06 21:08:00,39.3,31.4,30.23,NNW,346,0.0,0.0,73,0.00,,,0.00,WeatherTracker,2013-03-07 03:08:00,
2013-03-06 21:13:00,39.1,31.2,30.23,NNW,346,0.0,0.0,73,0.00,,,0.00,WeatherTracker,2013-03-07 03:13:00,
2013-03-06 21:18:00,38.9,31.3,30.23,NNW,346,0.0,0.0,74,0.00,,,0.00,WeatherTracker,2013-03-07 03:18:00,
2013-03-06 21:23:00,38.6,31.4,30.23,NNW,346,0.0,0.0,75,0.00,,,0.00,WeatherTracker,2013-03-07 03:23:00,
2013-03-06 21:28:00,38.4,31.5,30.23,NNW,346,1.0,2.0,76,0.00,,,0.00,WeatherTracker,2013-03-07 03:28:00,
2013-03-06 21:33:00,38.2,31.6,30.23,NNW,346,0.0,2.0,77,0.00,,,0.00,WeatherTracker,2013-03-07 03:33:00,
2013-03-06 21:38:00,37.9,31.3,30.23,NNW,346,0.0,1.0,77,0.00,,,0.00,WeatherTracker,2013-03-07 03:38:00,
2013-03-06 21:43:00,37.5,31.3,30.23,NNW,346,2.0,2.0,78,0.00,,,0.00,WeatherTracker,2013-03-07 03:43:00,
2013-03-06 21:48:00,37.3,31.4,30.24,NNW,346,2.0,4.0,79,0.00,,,0.00,WeatherTracker,2013-03-07 03:48:00,
2013-03-06 21:53:00,37.5,31.6,30.24,NNW,346,4.0,6.0,79,0.00,,,0.00,WeatherTracker,2013-03-07 03:53:00,
2013-03-06 21:58:00,37.9,31.7,30.24,North,360,5.0,6.0,78,0.00,,,0.00,WeatherTracker,2013-03-07 03:58:00,
2013-03-06 22:03:00,38.1,31.9,30.24,NNW,341,4.0,6.0,78,0.00,,,0.00,WeatherTracker,2013-03-07 04:03:00,
2013-03-06 22:08:00,38.1,31.9,30.24,NNW,342,4.0,6.0,78,0.00,,,0.00,WeatherTracker,2013-03-07 04:08:00,
2013-03-06 22:13:00,38.0,31.8,30.24,North,355,2.0,6.0,78,0.00,,,0.00,WeatherTracker,2013-03-07 04:13:00,
2013-03-06 22:18:00,37.8,31.6,30.24,North,355,5.0,6.0,78,0.00,,,0.00,WeatherTracker,2013-03-07 04:18:00,
2013-03-06 22:23:00,37.6,31.4,30.23,North,355,3.0,5.0,78,0.00,,,0.00,WeatherTracker,2013-03-07 04:23:00,
2013-03-06 22:28:00,37.4,31.5,30.24,North,355,4.0,5.0,79,0.00,,,0.00,WeatherTracker,2013-03-07 04:28:00,
2013-03-06 22:33:00,37.3,31.4,30.23,North,355,3.0,5.0,79,0.00,,,0.00,WeatherTracker,2013-03-07 04:33:00,
2013-03-06 22:39:00,37.1,31.2,30.23,North,355,2.0,5.0,79,0.00,,,0.00,WeatherTracker,2013-03-07 04:39:00,
2013-03-06 22:44:00,37.0,31.4,30.24,North,355,4.0,5.0,80,0.00,,,0.00,WeatherTracker,2013-03-07 04:44:00,
2013-03-06 22:49:00,37.1,31.2,30.24,NNW,339,4.0,5.0,79,0.00,,,0.00,WeatherTracker,2013-03-07 04:49:00,
2013-03-06 22:54:00,37.3,31.1,30.24,North,351,4.0,7.0,78,0.00,,,0.00,WeatherTracker,2013-03-07 04:54:00,
2013-03-06 22:59:00,37.4,31.2,30.24,NNW,329,5.0,7.0,78,0.00,,,0.00,WeatherTracker,2013-03-07 04:59:00,
2013-03-06 23:00:00,37.5,31.3,30.24,NW,321,3.0,7.0,78,0.00,,,0.00,WeatherTracker,2013-03-07 05:00:00,
2013-03-06 23:05:00,37.5,31.3,30.24,NW,325,4.0,5.0,78,0.00,,,0.00,WeatherTracker,2013-03-07 05:05:00,
2013-03-06 23:10:00,37.6,31.1,30.24,NNW,327,4.0,7.0,77,0.00,,,0.00,WeatherTracker,2013-03-07 05:10:00,
2013-03-06 23:15:00,37.6,31.1,30.24,NNW,339,6.0,7.0,77,0.00,,,0.00,WeatherTracker,2013-03-07 05:15:00,
2013-03-06 23:20:00,37.6,31.1,30.23,North,350,7.0,7.0,77,0.00,,,0.00,WeatherTracker,2013-03-07 05:20:00,
2013-03-06 23:25:00,37.5,31.0,30.23,NNW,336,5.0,8.0,77,0.00,,,0.00,WeatherTracker,2013-03-07 05:25:00,
2013-03-06 23:30:00,37.5,31.0,30.23,NW,323,3.0,8.0,77,0.00,,,0.00,WeatherTracker,2013-03-07 05:30:00,
2013-03-06 23:35:00,37.5,31.0,30.23,North,355,6.0,7.0,77,0.00,,,0.00,WeatherTracker,2013-03-07 05:35:00,
2013-03-06 23:40:00,37.5,31.0,30.23,NW,324,3.0,8.0,77,0.00,,,0.00,WeatherTracker,2013-03-07 05:40:00,
2013-03-06 23:46:00,37.4,30.9,30.23,NNW,347,4.0,8.0,77,0.00,,,0.00,WeatherTracker,2013-03-07 05:46:00,
2013-03-06 23:51:00,37.3,30.8,30.23,NNW,338,4.0,8.0,77,0.00,,,0.00,WeatherTracker,2013-03-07 05:51:00,
2013-03-06 23:56:00,37.2,30.7,30.23,NNW,348,4.0,7.0,77,0.00,,,0.00,WeatherTracker,2013-03-07 05:56:00,